Weather in Radivilov

Ukraine / Rovno District     50°07′55″N   25°14′57″E
temp.,
°C
wind,
m/s
gust,
m/s
humid.,
%
clouds,
%
prec.,
mm/h
press.,
hPa
HPBL,
m
18 april, sun
sun1800:00+4wsw229186 0.0 102045
03:00+4w2290100 0.0 102047
06:00+4nnw119295 0.0 102024
09:00+6nw118486 0.0 1020274
12:00+10n1164100 0.0 1019943
15:00+12nne2254100 0.0 10181369
18:00+12nne1261100 0.0 1018711
21:00+10nnw1171100 0.0 101810
19 april, mon
mon1900:00+9nne2287100 0.9 101850
03:00+8nnw1194100 2.4 101837
06:00+6ne3696100 0.0 1017157
09:00+8ene5888100 0.0 1018518
12:00+8ene5775100 0.0 1017633
15:00+8ene5781100 0.0 1017570
18:00+10e4575100 0.0 1016927
21:00+7ene3987100 0.1 1016330
20 april, tue
tue2000:00+6ene4108692 0.0 1016272
03:00+5ene379267 0.0 1015145
06:00+5ne3790100 0.0 1014184
09:00+7ne468291 0.0 1014344
12:00+11ne335960 0.2 10131282
15:00+11nne546174 1.0 10121172
18:00+11n456056 0.2 10111199
21:00+7ne358258 0.4 1013108
21 april, wed
wed2100:00+4e018394 0.0 101310
03:00+4wsw228743 0.0 101323
06:00+4wsw249169 0.0 101375
09:00+7wsw458494 0.2 1013302
12:00+12wnw466194 0.6 10131192
15:00+14w565165 1.0 10131761
18:00+14w465317 0.0 10121688
21:00+9sw477644 0.1 1014120
22 april, thu
thu2200:00+7sw378926 0.2 1015128
03:00+6sw369115 0.2 1015102
06:00+5ssw379012 0.0 1015142
09:00+10wsw47765 0.1 1016402
12:00+13wsw456598 0.3 10161315
15:00+13sw566589 0.6 10161400
18:00+12sw336612 0.1 1016540
21:00+9sse3487100 1.3 101679